Погода в Русском

Россия / Приморский край     43°01′01″N   131°54′22″E
темп.,
°C
ветер,
м/с
пор.,
м/с
влажн.,
%
обл.,
%
осадки,
мм/ч
давл.,
гПа
погр.,
м
9 декабря, чт
чт901:00+2ююв01570 0.0 1032169
04:00+4ю23573 0.0 1031250
07:00+4юв33685 0.0 1031221
10:00+4юв56775 0.0 1031272
13:00+4юв6782100 0.0 1031239
16:00+5юв568599 0.0 102988
19:00+6ю3382100 0.0 102825
22:00+6ю4587100 0.0 102858
10 декабря, пт
пт1001:00+6ююв6990100 0.1 1027127
04:00+6ююв71085100 0.1 1025154
07:00+6юв71186100 0.1 1024168
10:00+6юв81188100 0.2 1023168
13:00+6юв81189100 0.1 1022155
16:00+6юв5793100 0.2 1021109
19:00+6вюв2394100 0.0 102133
22:00+5ссз4594100 0.0 102274
11 декабря, сб
сб1101:00+4с58895 0.0 1023265
04:00+3с58875 0.0 1024389
07:00+3ссз510755 0.0 1024629
10:00+2с610765 0.0 1025545
13:00+3с576799 0.0 1024554
16:00+3ссз456428 0.0 1023381
19:00+3ссз3466100 0.0 1022232
22:00+2ссз336917 0.0 1021196
12 декабря, вс
вс1201:00+2ссз33715 0.0 1020202
04:00+2ссз346927 0.0 1019259
07:00+2сз7116349 0.0 1018837
10:000сз1011572 0.0 10191066
13:00−1ссз911506 0.0 10181435
16:00−1ссз9104499 0.0 10172045
19:00−3ссз10115098 0.0 10172025
22:00−4сз13154823 0.1 10182213
13 декабря, пн
пн1301:00−6сз13165539 0.0 10181879
04:00−7сз13165712 0.0 10181650
07:00−7сз13185711 0.0 10191604
10:00−6сз1317563 0.0 10201409
13:00−5сз912471 0.0 10201422
16:00−3сз1013420 0.0 10201384
19:00−3сз810414 0.0 10211087
22:00−3ссз574124 0.0 1021673